Location: Unspecified
(0.0000°N, 0.0000°E)
Time: 03:33:08
(UTC+00:00)

Vanguard 2 Rocket - Pass Details

Date: 14 December 2018
Orbit: 554 x 3327 km, 32.9° (Epoch: 16 January)

Event Time Altitude Azimuth Distance (km) Brightness Sun altitude
Rises 19:05:02 0° 248° (WSW) 6,979 13.3 -16.1°
Reaches altitude 10° 19:12:07 10° 232° (SW) 6,205 12.3 -17.7°
Maximum altitude 19:24:53 19° 192° (SSW) 5,441 11.2 -20.6°
Drops below altitude 10° 19:36:53 10° 152° (SSE) 5,773 10.9 -23.3°
Sets 19:43:08 0° 135° (SE) 6,365 11.0 -24.7°
